FLOCK 2B-6

Last updated on Mon Aug 22 2016 09:39:34 GMT+0000 (Coordinated Universal Time)

1 40955U 98067HG 16234.95780760 .06826490 12366-4 77783-3 0 9993 2 40955 51.6122 43.4303 0006459 323.8227 36.1895 16.36055317 50486

Satellite not in orbit